Simultaneous Nadir Overpasses (SNOs) Predictions

Prediction of SNOs between METOP-C and LANDSAT-8 Satellite Orbit:

Table of predicted SNOs for the next 14.0 days since TLE Epoch: 1/13/2024
Index Date (METOP-C) Time (METOP-C) Lat,Lon (METOP-C) SZA (METOP-C ) Date (LANDSAT-8) Time (LANDSAT-8) Lat,Lon (LANDSAT-8) SZA (LANDSAT-8 ) Distance(km) Time Diff (sec)
1 01/14/2024 07:18:39 81.13, 109.95 104.20 01/14/2024 07:19:11 81.13, 110.09 104.23 2.51 32
2 01/14/2024 08:09:17 -81.15, -81.97 75.72 01/14/2024 08:08:37 -81.15, -81.94 75.73 0.67 40
3 01/17/2024 02:53:00 81.12, 176.33 103.66 01/17/2024 02:53:25 81.13, 176.48 103.69 2.77 25
4 01/17/2024 03:43:38 -81.15, -15.56 76.26 01/17/2024 03:42:51 -81.15, -15.53 76.28 0.58 47
5 01/19/2024 22:27:21 81.13,-117.03 103.10 01/19/2024 22:27:39 81.13,-117.03 103.11 0.11 18
6 01/19/2024 23:17:59 -81.16, 51.12 76.82 01/19/2024 23:17:05 -81.16, 50.98 76.85 2.53 54
7 01/22/2024 18:01:42 81.14, -50.49 102.48 01/22/2024 18:01:52 81.14, -50.43 102.49 1.22 10
8 01/22/2024 18:52:20 -81.16, 117.71 77.43 01/22/2024 18:51:18 -81.17, 117.59 77.47 2.17 62
9 01/25/2024 13:36:02 81.14, 15.94 101.80 01/25/2024 13:36:04 81.13, 15.90 101.79 0.79 2



Historial Predications of SNOs between METOP-C and LANDSAT-8
